CORVUS BC4

Last updated on Wed Oct 29 2025 00:03:53 GMT+0000 (Coordinated Universal Time)

1 43767U 18099K 25301.59101619 .00006642 00000+0 41360-3 0 9991 2 43767 97.4424 346.2842 0010517 82.1923 278.0500 15.09859530377427
UTC large
Height (km)
Speed (km/s)
/
Latitude / Longitude
Inclination (degrees)
Orbital Period (minutes)
Azimuth
Elevation
Range (km)
Doppler Factor

Next 0 passes for location: London (51.5072 / 0.1276)

Sorry there are no passes over London.